Suomi 100
1 43804U 18099AY  24319.57030831  .00015495  00000-0  90956-3 0  9998
2 43804  97.5081  14.9593 0014794 142.1209 218.1065 15.11725776325359
ISAT
1 43879U 18111D   24319.21744934  .00022057  00000-0  10829-2 0  9994
2 43879  97.6063 224.7484 0010263 188.7295 171.3761 15.18048388322118
UWE-4
1 43880U 18111E   24319.26733518  .00018471  00000-0  95687-3 0  9998
2 43880  97.5996 224.3691 0013109 203.3998 156.6639 15.16173255322116
Sparrow
1 43881U 18111F   24319.26271922  .00022322  00000-0  10746-2 0  9997
2 43881  97.6174 227.0198 0006190 233.6098 126.4565 15.18760459322198
Prox-1
1 44339U 19036A   24319.40771608  .00014805  00000-0  22395-2 0  9995
2 44339  23.9999 335.2433 0008017 234.3883 125.5866 14.72537891287362
SONATE
1 44400U 19038Q   24319.55481837  .00047775  00000-0  93795-3 0  9999
2 44400  97.7133 321.6305 0009578 293.9120  66.1125 15.47131741297215
Taurus 1
1 44530U 19059C   24319.46415691  .00011516  00000-0  23953-2 0  9993
2 44530  98.5885  84.1887 0010321 311.2011  48.8297 14.60184887273651
Duchifat 3
1 44854U 19089C   24319.05297066  .00031478  00000-0  11811-2 0  9993
2 44854  36.9531 213.4839 0012676 281.6036  78.3292 15.26298316271095
TO-108
1 44881U 19093C   24319.52293769  .00002424  00000-0  29233-3 0  9993
2 44881  97.8165  33.3836 0013904 185.3526 174.7542 14.84670610265343
FloripaSat 1
1 44885U 19093G   24319.32711537  .00010075  00000-0  94772-3 0  9994
2 44885  97.8336  41.0287 0011687 172.5609 187.5786 14.94029925265754
RS-44
1 44909U 19096E   24319.61064291  .00000036  00000-0  92471-4 0  9995
2 44909  82.5241   4.8197 0218416  59.7008 302.5505 12.79735893228264
UPMSat 2
1 46276U 20061E   24319.11561015  .00035898  00000-0  77851-3 0  9997
2 46276  97.2785  24.3657 0000733  15.0195 345.1075 15.44320457233228
AmicalSat
1 46287U 20061R   24319.17996180  .00151826  00000-0  15312-2 0  9993
2 46287  97.3255  28.4722 0001169 324.6431  35.4751 15.64882912232755
SALSAT
1 46495U 20068K   24319.47578700  .00011043  00000-0  55502-3 0  9990
2 46495  97.8356 283.1089 0013788 148.7913 211.4141 15.17362899227061
SOMP 2b
1 47445U 21006AJ  24319.15866626  .04921083  23797-5  14538-2 0  9995
2 47445  97.2665  22.7441 0006826 284.5323  75.5213 16.27184491212067
IDEASSat
1 47458U 21006AX  24319.57317453  .00356820  00000-0  17569-2 0  9995
2 47458  97.3015  22.2985 0002425 339.7783  20.3389 15.81205680211955
CubeSX-Sirius-HSE
1 47951U 21022V   24319.56605997  .00054393  00000-0  13859-2 0  9991
2 47951  97.4412 218.5600 0009350 344.0200  16.0749 15.39324844201583
CubeSX-HSE
1 47952U 21022W   24319.63206108  .00052942  00000-0  13360-2 0  9996
2 47952  97.4411 218.7606 0009231 341.9582  18.1334 15.39627686201604
KSU-Cubesat
1 47954U 21022Y   24319.25102300  .00076215  00000-0  14955-2 0  9995
2 47954  97.4412 220.7321 0006755 344.0077  16.0958 15.47046170201415
GRBAlpha
1 47959U 21022AD  24319.58998005  .00052623  00000-0  13279-2 0  9996
2 47959  97.4412 218.8856 0009175 342.3205  17.7720 15.39631256200425
Orbicraft-Zorkiy
1 47960U 21022AE  24319.62382070  .00070566  00000-0  15179-2 0  9999
2 47960  97.4453 220.9573 0007629 345.0189  15.0832 15.44367786201229
TUBIN
1 48900U 21059X   24319.58713818  .00034357  00000-0  85617-3 0  9990
2 48900  97.6607 109.7326 0005555 276.2327  83.8285 15.40140463187980
LEDSAT
1 49069U 21073D   24319.17178877  .00036411  00000-0  10451-2 0  9994
2 49069  97.4209  30.1089 0015955 110.5122 249.7835 15.35641759179370
CUTE
1 49263U 21088D   24319.18589369  .00039922  00000-0  13031-2 0  9996
2 49263  97.4795  25.0795 0010415 273.2772  86.7277 15.31609060172497
TeikyoSat 4
1 49396U 21102B   24319.56768008  .00004012  00000-0  27912-3 0  9997
2 49396  97.4414 359.3344 0014604 118.8632 241.4063 15.05946387165377
Z-Sat
1 49399U 21102E   24319.60432988  .00008223  00000-0  49058-3 0  9993
2 49399  97.4123   1.3877 0020757  99.6125 260.7452 15.11211521165683
KOSEN 1
1 49402U 21102H   24319.62416694  .00011174  00000-0  59154-3 0  9993
2 49402  97.4041   3.4893 0018907  81.6710 278.6666 15.15435500165890
HO-113
1 50466U 21131B   24319.56970605  .00001757  00000-0  56904-3 0  9993
2 50466  98.5225  43.9384 0004801  48.3344 311.8254 14.40250475151647
IRIS-A
1 51044U 22002BN  24319.13817584  .00044098  00000-0  93725-3 0  9990
2 51044  97.3656  26.1133 0004394 211.1027 148.9962 15.44864382157458
Planetum 1
1 52738U 22057G   24319.34775339  .00513506  10168-3  17833-2 0  9994
2 52738  97.5649  94.3059 0008348 298.5408  61.5023 15.89346693137918
Foresail-1
1 52766U 22057AL  24319.36422411  .00046944  00000-0  98620-3 0  9999
2 52766  97.5965  89.7619 0007993 313.8649  46.1938 15.45170530137521
SNUGLITE 2
1 52899U 22065F   24319.35022534  .00002905  00000-0  58807-3 0  9998
2 52899  98.1401  97.8924 0008310  48.7300 311.4616 14.62027406126194
IO-117
1 53106U 22080B   24317.91823954 -.00000003  00000-0  00000-0 0  9999
2 53106  70.1294 140.8531 0008378  74.0630 286.0952  6.42557820 54828
FO-118
1 54684U 22167C   24319.57168244  .00090044  00000-0  15561-2 0  9998
2 54684  97.6149 109.9033 0008678 321.1491  38.9135 15.50618845107415
SSS-2B
1 56184U 23054G   24319.57909782  .00241526  00000-0  16695-2 0  9993
2 56184  97.3416 221.1069 0005412  67.2891 292.8945 15.73816007 89466
SO-120
1 56992U 23084BU  24319.61308448  .00116583  00000-0  19517-2 0  9990
2 56992  97.5372  82.6459 0008480 225.5246 134.5313 15.51417789 79280
MRC-100
1 56993U 23084BV  24319.30636452  .00180326  00000-0  20917-2 0  9998
2 56993  97.5363  83.6939 0007896 237.5620 122.4873 15.61157157 79338
UmKA 1 (RS40S)
1 57172U 23091G   24319.58696249  .00009234  00000-0  55367-3 0  9992
2 57172  97.5922  10.2706 0015050 332.3048  27.7379 15.11089713 76170
CubeBel-2 (EU11S)
1 57175U 23091K   24319.61853299  .00013658  00000-0  77480-3 0  9994
2 57175  97.5926  10.5240 0013547 344.0776  16.0027 15.13004810 76190
VERONIKA
1 58261U 23174F   24319.28708842  .00042304  00000-0  12966-2 0  9996
2 58261  97.4453  33.6394 0009717  73.3931 286.8378 15.33616476 56605
KAFASAT
1 58317U 23174BP  24319.33953304  .00064911  00000-0  15190-2 0  9999
2 58317  97.4383  35.2792 0007572  41.9717 318.2109 15.41876271 56735
ENSO
1 58470U 23185J   24319.55213368  .00035779  00000-0  10974-2 0  9999
2 58470  97.4078  25.4475 0010835 105.5536 254.6903 15.33619343 53094
EIRSAT-1
1 58472U 23185L   24319.54779789  .00041240  00000-0  11877-2 0  9997
2 58472  97.4072  25.7243 0010159 105.4230 254.8136 15.35584725 53115
SONATE-2
1 59112U 24043Q   24319.32647309  .00019817  00000-0  78444-3 0  9990
2 59112  97.4943  82.3099 0013605 127.1007 233.1477 15.25391703 38633
MO-122
1 60209U 24125G   24319.56781886  .00021462  00000-0  84393-3 0  9994
2 60209  97.3009 168.7404 0023867 151.4476 208.8075 15.25411340 20289
GRBBeta
1 60237U 24128C   24319.56661286  .00007571  00000-0  62815-3 0  9999
2 60237  61.9938  79.5768 0026297   3.1305 356.9943 14.99300515 19125
Curium One
1 60242U 24128H   24319.60358265  .00012272  00000-0  99789-3 0  9994
2 60242  61.9842  79.6021 0026520 353.1156   6.9565 14.99650804 19131
ROBUSTA-3A
1 60243U 24128J   24319.55611903  .00011906  00000-0  97718-3 0  9993
2 60243  61.9908  80.0252 0024602 350.2858   9.7752 14.99352393 19123
CatSat
1 60246U 24125J   24319.12945481  .00015032  00000-0  60921-3 0  9997
2 60246  97.2827 169.2211 0050680 109.0996 251.5739 15.23533780 18323
CosmoGirlSat
1 60953U 98067WT  24319.37227712  .00407919  00000-0  20146-2 0  9998
2 60953  51.6247 284.5935 0007844 135.5189 224.6444 15.80364910 12030
Sakura
1 60954U 98067WU  24319.28296114  .00560240  00000-0  19465-2 0  9990
2 60954  51.6236 283.9822 0008489 131.1135 229.0604 15.87402767 12033
CySat-1
1 61501U 98067WZ  24319.23574577  .00152263  00000-0  16337-2 0  9993
2 61501  51.6335 290.4611 0009484 153.6105 206.5374 15.62734867  5772
DORA
1 61502U 98067XA  24319.38860961  .00630793  00000-0  34618-2 0  9996
2 61502  51.6271 288.4697 0012899 136.6096 223.5922 15.77378641  5809
